TimeCDT,TemperatureF,Dew PointF,Humidity,Sea Level PressureIn,VisibilityMPH,Wind Direction,Wind SpeedMPH,Gust SpeedMPH,PrecipitationIn,Events,Conditions,WindDirDegrees,DateUTC
12:38 AM,28.4,23.0,80,30.15,10.0,NNW,12.7,-,N/A,,Scattered Clouds,340,2013-03-17 05:38:00
12:52 AM,28.9,21.0,72,30.17,10.0,NNW,15.0,-,N/A,,Clear,340,2013-03-17 05:52:00
1:52 AM,28.0,21.0,75,30.17,10.0,North,13.8,-,N/A,,Clear,350,2013-03-17 06:52:00
2:52 AM,27.0,19.0,72,30.16,10.0,North,11.5,-,N/A,,Clear,360,2013-03-17 07:52:00
3:52 AM,27.0,19.0,72,30.15,10.0,North,15.0,-,N/A,,Clear,10,2013-03-17 08:52:00
4:52 AM,27.0,19.0,72,30.15,10.0,NNE,11.5,-,N/A,,Clear,30,2013-03-17 09:52:00
5:52 AM,26.1,18.0,71,30.19,10.0,NE,11.5,-,N/A,,Clear,50,2013-03-17 10:52:00
6:52 AM,25.0,17.1,72,30.19,10.0,ENE,15.0,-,N/A,,Clear,60,2013-03-17 11:52:00
7:52 AM,25.0,15.1,66,30.20,10.0,ENE,11.5,-,N/A,,Clear,60,2013-03-17 12:52:00
8:52 AM,27.0,16.0,63,30.22,10.0,East,13.8,-,N/A,,Clear,80,2013-03-17 13:52:00
9:52 AM,28.9,16.0,58,30.22,10.0,East,16.1,21.9,N/A,,Clear,80,2013-03-17 14:52:00
10:52 AM,30.9,18.0,59,30.20,10.0,East,13.8,-,N/A,,Clear,80,2013-03-17 15:52:00
11:52 AM,32.0,19.9,61,30.19,10.0,SE,16.1,-,N/A,,Scattered Clouds,130,2013-03-17 16:52:00
12:52 PM,35.1,21.9,59,30.15,10.0,ESE,16.1,-,N/A,,Scattered Clouds,110,2013-03-17 17:52:00
1:32 PM,35.6,21.2,56,30.11,10.0,East,13.8,-,N/A,,Mostly Cloudy,100,2013-03-17 18:32:00
1:52 PM,36.0,23.0,59,30.13,10.0,ESE,11.5,21.9,N/A,,Mostly Cloudy,120,2013-03-17 18:52:00
2:52 PM,35.1,23.0,61,30.10,10.0,East,17.3,-,N/A,,Overcast,90,2013-03-17 19:52:00
3:52 PM,35.1,24.1,64,30.07,10.0,East,17.3,-,N/A,,Overcast,80,2013-03-17 20:52:00
4:52 PM,35.1,24.1,64,30.06,10.0,East,16.1,-,N/A,,Overcast,100,2013-03-17 21:52:00
5:52 PM,35.1,25.0,67,30.04,10.0,East,15.0,-,N/A,,Overcast,90,2013-03-17 22:52:00
6:52 PM,33.1,25.0,72,30.02,10.0,East,16.1,-,N/A,,Overcast,100,2013-03-17 23:52:00
7:52 PM,33.1,26.1,75,30.02,10.0,East,13.8,-,N/A,,Overcast,100,2013-03-18 00:52:00
8:52 PM,32.0,26.1,79,30.01,10.0,East,13.8,20.7,N/A,,Overcast,100,2013-03-18 01:52:00
9:14 PM,32.0,26.6,80,29.97,9.0,East,11.5,-,N/A,,Scattered Clouds,100,2013-03-18 02:14:00
9:52 PM,32.0,25.0,75,29.99,10.0,ESE,15.0,-,N/A,,Clear,110,2013-03-18 02:52:00
10:52 PM,32.0,25.0,75,29.98,9.0,East,15.0,-,N/A,,Partly Cloudy,100,2013-03-18 03:52:00
11:52 PM,32.0,25.0,75,29.94,9.0,East,15.0,-,N/A,,Overcast,100,2013-03-18 04:52:00